Lid_Strength_Index
9 9 9 9 8 8 8 7 8 10 9 8 9 7 6 6 7 6 7 10 10 10 10 10 9 9 8 8 7 7 7 7 6 5 5 4 3 3
9 10 9 8 9 8 8 7 7 8 8 8 8 8 6 7 7 7 8 9 10 10 11 10 10 9 9 8 8 8 7 7 7 6 6 5 4 4
9 9 9 9 9 9 9 9 8 8 8 9 8 8 8 8 8 7 8 8 9 10 10 10 10 9 9 8 8 8 8 8 8 7 7 6 4 4
10 10 11 10 10 10 10 10 9 9 9 10 9 10 9 8 7 7 8 8 9 9 10 10 10 9 9 8 8 9 9 8 8 8 8 7 6 6
9 9 11 11 11 11 10 10 9 10 8 9 10 10 10 9 8 8 8 9 9 9 10 10 10 9 9 8 9 9 9 9 8 8 9 8 8 8
8 10 10 10 10 11 10 10 10 10 10 9 10 10 10 9 9 10 10 8 10 9 10 10 10 9 9 8 9 9 9 9 9 9 9 10 9 9
9 10 10 11 12 12 12 11 11 10 10 11 11 10 11 11 11 10 9 9 10 9 10 9 8 8 8 8 9 9 10 10 10 10 9 9 9 9
7 7 8 10 12 13 13 14 13 11 11 11 11 11 11 10 11 10 10 10 12 9 10 9 8 9 9 8 9 9 10 10 10 10 10 9 9 10
7 7 9 10 11 11 13 13 14 14 13 10 11 11 12 11 11 10 10 9 8 9 9 11 9 10 9 9 9 9 9 10 10 11 10 11 10 10
8 8 9 10 11 13 14 14 13 13 12 11 11 12 11 11 10 9 9 9 10 10 8 12 10 11 10 10 10 9 9 9 10 10 11 12 12 11
9 9 9 10 12 13 14 14 14 13 13 13 13 13 13 13 10 9 10 10 12 11 10 10 11 11 10 11 10 11 11 11 11 11 11 11 12 12
10 10 11 10 12 13 13 13 14 13 12 13 13 12 12 13 13 10 9 9 10 12 10 11 11 11 12 11 11 9 9 12 12 12 12 12 12 9
9 10 10 12 11 12 13 12 12 12 12 12 12 11 11 11 10 10 9 8 10 10 11 10 11 11 11 13 11 10 10 10 10 11 12 12 11 11
9 8 9 12 11 12 13 13 13 12 11 11 11 11 11 11 11 10 11 10 10 11 11 10 10 11 11 12 12 11 11 10 10 11 10 11 12 12
8 9 11 11 11 12 13 13 13 11 11 11 11 10 10 11 11 11 11 11 11 11 11 12 11 11 10 11 12 12 12 11 10 11 11 11 11 11
10 11 11 11 11 11 12 12 11 10 10 10 10 10 10 11 11 10 11 11 12 12 12 11 11 11 12 11 12 13 12 12 11 11 11 11 11 11
10 11 11 11 11 12 11 11 11 10 11 10 10 10 11 11 11 10 11 11 11 12 12 12 11 11 11 11 12 12 12 12 11 12 12 12 11 11
11 12 11 11 11 11 11 11 10 11 10 10 10 10 11 11 11 11 11 11 11 11 11 11 12 12 13 13 12 12 11 11 11 12 12 13 12 12
11 11 11 11 11 11 11 11 11 10 10 11 10 11 11 11 11 11 11 11 12 11 11 11 12 12 13 14 12 13 11 11 11 12 11 11 12 11
11 11 11 11 11 11 11 11 10 10 11 11 11 10 10 11 11 11 11 11 11 12 12 12 12 12 12 12 12 12 13 12 11 12 11 11 11 14
11 11 10 10 10 10 10 10 10 10 11 11 10 10 10 10 10 10 10 11 11 11 12 12 11 12 10 11 12 12 12 14 13 12 12 12 12 12
10 10 9 9 9 10 10 10 10 10 10 10 10 9 9 9 10 10 10 11 11 10 11 10 11 11 11 12 12 12 11 10 12 13 14 15 12 13
9 9 9 9 9 9 10 10 10 9 10 10 10 10 10 10 10 10 10 10 10 10 10 11 11 11 11 12 12 11 12 13 11 11 11 13 14 14